PORTS® Data Listing: 9440422 Longview, WA

CO-OPS RAW PORTS DATA

************************      PRELIMINARY DATA      ************************** 

     THIS RAW DATA HAS NOT BEEN SUBJECT TO THE NATIONAL OCEAN SERVICE'S        
     QUALITY CONTROL OR QUALITY ASSURANCE PROCEDURES AND DOES NOT MEET         
     THE CRITERIA AND STANDARDS OF OFFICIAL NATIONAL OCEAN SERVICE             
     DATA.  IT IS RELEASED FOR LIMITED PUBLIC USE AS PRELIMINARY DATA TO       
     BE USED ONLY WITH APPROPRIATE CAUTION.                                    

************************      PRELIMINARY DATA      ************************** 


       CD   -   Calendar date
       T    -   Time
       TZ   -   Timezone
       FW   -   NWS Forecast water level (feet above CRD)
       OW   -   Observed water level (feet above CRD)
       WS   -   Wind speed (knots)
       WD   -   Wind direction (degrees true)
       WG   -   Wind gust (knots)
       AT   -   Air temperature (degrees farenheit)
       WT   -   Water temperature (degrees farenheit)
       AP   -   Air pressure (millibars)
       SA   -   Salinty (PSU - Practical Salinity Units)
       SG   -   Specific gravity
       RH   -   Relative humidity
       AG   -   Air gap (feet)
       VI   -   Visibility (nautical miles)

       ** NOTE **
       A variable that has its data fields filled with "9"s, indicates that
       data was not collected for that sample period.
       **********


STATION NAME: Longview (9440422)
****************************************************************************************************
    CD       T    TZ    FW     OW    WS   WD   WG    AT    WT    AP    SA    SG     RH    AG   VI
****************************************************************************************************
2020/02/15 17:06 PST  -99.99   4.58 -999 -999 -999 -99.9  43.0 1018.6 -9.9 -9.999 -99.9 -99.99 -9.99
2020/02/15 17:12 PST  -99.99   4.61 -999 -999 -999 -99.9  43.0 1018.6 -9.9 -9.999 -99.9 -99.99 -9.99
2020/02/15 17:18 PST  -99.99   4.64 -999 -999 -999 -99.9  43.0 1018.6 -9.9 -9.999 -99.9 -99.99 -9.99
2020/02/15 17:24 PST  -99.99   4.65 -999 -999 -999 -99.9  43.0 1018.7 -9.9 -9.999 -99.9 -99.99 -9.99
2020/02/15 17:30 PST  -99.99   4.69 -999 -999 -999 -99.9  43.0 1018.7 -9.9 -9.999 -99.9 -99.99 -9.99
2020/02/15 17:36 PST  -99.99   4.73 -999 -999 -999 -99.9  43.0 1018.6 -9.9 -9.999 -99.9 -99.99 -9.99
2020/02/15 17:42 PST  -99.99   4.77 -999 -999 -999 -99.9  43.0 1018.6 -9.9 -9.999 -99.9 -99.99 -9.99
2020/02/15 17:48 PST  -99.99   4.83 -999 -999 -999 -99.9  43.0 1018.7 -9.9 -9.999 -99.9 -99.99 -9.99
2020/02/15 17:54 PST  -99.99   4.90 -999 -999 -999 -99.9  43.0 1018.6 -9.9 -9.999 -99.9 -99.99 -9.99
2020/02/15 18:00 PST  -99.99   4.97 -999 -999 -999 -99.9  43.0 1018.7 -9.9 -9.999 -99.9 -99.99 -9.99
2020/02/15 18:06 PST  -99.99   5.04 -999 -999 -999 -99.9  43.0 1018.7 -9.9 -9.999 -99.9 -99.99 -9.99
2020/02/15 18:12 PST  -99.99   5.11 -999 -999 -999 -99.9  43.0 1018.7 -9.9 -9.999 -99.9 -99.99 -9.99
2020/02/15 18:18 PST  -99.99   5.20 -999 -999 -999 -99.9  43.0 1018.6 -9.9 -9.999 -99.9 -99.99 -9.99
2020/02/15 18:24 PST  -99.99   5.30 -999 -999 -999 -99.9  43.0 1018.7 -9.9 -9.999 -99.9 -99.99 -9.99
2020/02/15 18:30 PST  -99.99   5.37 -999 -999 -999 -99.9  43.0 1018.8 -9.9 -9.999 -99.9 -99.99 -9.99
2020/02/15 18:36 PST  -99.99   5.45 -999 -999 -999 -99.9  43.0 1018.6 -9.9 -9.999 -99.9 -99.99 -9.99
2020/02/15 18:42 PST  -99.99   5.54 -999 -999 -999 -99.9  43.0 1018.4 -9.9 -9.999 -99.9 -99.99 -9.99
2020/02/15 18:48 PST  -99.99   5.62 -999 -999 -999 -99.9  43.0 1018.3 -9.9 -9.999 -99.9 -99.99 -9.99
2020/02/15 18:54 PST  -99.99   5.69 -999 -999 -999 -99.9  43.0 1018.3 -9.9 -9.999 -99.9 -99.99 -9.99
2020/02/15 19:00 PST  -99.99   5.77 -999 -999 -999 -99.9  43.0 1018.2 -9.9 -9.999 -99.9 -99.99 -9.99
2020/02/15 19:06 PST  -99.99   5.85 -999 -999 -999 -99.9  43.0 1018.2 -9.9 -9.999 -99.9 -99.99 -9.99
2020/02/15 19:12 PST  -99.99   5.94 -999 -999 -999 -99.9  43.0 1018.0 -9.9 -9.999 -99.9 -99.99 -9.99
2020/02/15 19:18 PST  -99.99   6.01 -999 -999 -999 -99.9  43.0 1017.9 -9.9 -9.999 -99.9 -99.99 -9.99
2020/02/15 19:24 PST  -99.99   6.08 -999 -999 -999 -99.9  43.0 1017.8 -9.9 -9.999 -99.9 -99.99 -9.99
2020/02/15 19:30 PST  -99.99   6.15 -999 -999 -999 -99.9  43.0 1017.8 -9.9 -9.999 -99.9 -99.99 -9.99
2020/02/15 19:36 PST  -99.99   6.23 -999 -999 -999 -99.9  43.0 1017.9 -9.9 -9.999 -99.9 -99.99 -9.99
2020/02/15 19:42 PST  -99.99   6.29 -999 -999 -999 -99.9  43.0 1018.1 -9.9 -9.999 -99.9 -99.99 -9.99
2020/02/15 19:48 PST  -99.99   6.36 -999 -999 -999 -99.9  43.0 1018.3 -9.9 -9.999 -99.9 -99.99 -9.99
2020/02/15 19:54 PST  -99.99   6.41 -999 -999 -999 -99.9  43.0 1018.4 -9.9 -9.999 -99.9 -99.99 -9.99
2020/02/15 20:00 PST  -99.99   6.46 -999 -999 -999 -99.9  43.0 1018.3 -9.9 -9.999 -99.9 -99.99 -9.99
2020/02/15 20:06 PST  -99.99   6.50 -999 -999 -999 -99.9  43.0 1018.4 -9.9 -9.999 -99.9 -99.99 -9.99
2020/02/15 20:12 PST  -99.99   6.54 -999 -999 -999 -99.9  43.0 1018.6 -9.9 -9.999 -99.9 -99.99 -9.99
2020/02/15 20:18 PST  -99.99   6.57 -999 -999 -999 -99.9  43.0 1018.7 -9.9 -9.999 -99.9 -99.99 -9.99
2020/02/15 20:24 PST  -99.99   6.59 -999 -999 -999 -99.9  43.0 1018.8 -9.9 -9.999 -99.9 -99.99 -9.99
2020/02/15 20:30 PST  -99.99   6.61 -999 -999 -999 -99.9  43.0 1018.9 -9.9 -9.999 -99.9 -99.99 -9.99
2020/02/15 20:36 PST  -99.99   6.63 -999 -999 -999 -99.9  43.0 1018.8 -9.9 -9.999 -99.9 -99.99 -9.99
2020/02/15 20:42 PST  -99.99   6.63 -999 -999 -999 -99.9  43.0 1018.6 -9.9 -9.999 -99.9 -99.99 -9.99
2020/02/15 20:48 PST  -99.99   6.64 -999 -999 -999 -99.9  43.0 1018.9 -9.9 -9.999 -99.9 -99.99 -9.99
2020/02/15 20:54 PST  -99.99   6.64 -999 -999 -999 -99.9  43.0 1018.9 -9.9 -9.999 -99.9 -99.99 -9.99
2020/02/15 21:00 PST  -99.99   6.64 -999 -999 -999 -99.9  43.0 1018.8 -9.9 -9.999 -99.9 -99.99 -9.99
2020/02/15 21:06 PST  -99.99   6.63 -999 -999 -999 -99.9  43.0 1018.8 -9.9 -9.999 -99.9 -99.99 -9.99
2020/02/15 21:12 PST  -99.99   6.63 -999 -999 -999 -99.9  43.0 1018.9 -9.9 -9.999 -99.9 -99.99 -9.99
2020/02/15 21:18 PST  -99.99   6.62 -999 -999 -999 -99.9  43.0 1018.9 -9.9 -9.999 -99.9 -99.99 -9.99
2020/02/15 21:24 PST  -99.99   6.61 -999 -999 -999 -99.9  43.0 1018.9 -9.9 -9.999 -99.9 -99.99 -9.99
2020/02/15 21:30 PST  -99.99   6.59 -999 -999 -999 -99.9  43.0 1018.8 -9.9 -9.999 -99.9 -99.99 -9.99
2020/02/15 21:36 PST  -99.99   6.58 -999 -999 -999 -99.9  43.0 1018.9 -9.9 -9.999 -99.9 -99.99 -9.99
2020/02/15 21:42 PST  -99.99   6.55 -999 -999 -999 -99.9  43.0 1018.8 -9.9 -9.999 -99.9 -99.99 -9.99
2020/02/15 21:48 PST  -99.99   6.53 -999 -999 -999 -99.9  43.0 1018.8 -9.9 -9.999 -99.9 -99.99 -9.99
2020/02/15 21:54 PST  -99.99   6.50 -999 -999 -999 -99.9  43.0 1018.9 -9.9 -9.999 -99.9 -99.99 -9.99
2020/02/15 22:00 PST  -99.99   6.47 -999 -999 -999 -99.9  43.2 1018.7 -9.9 -9.999 -99.9 -99.99 -9.99
2020/02/15 22:06 PST  -99.99   6.44 -999 -999 -999 -99.9  43.2 1018.8 -9.9 -9.999 -99.9 -99.99 -9.99
2020/02/15 22:12 PST  -99.99   6.40 -999 -999 -999 -99.9  43.2 1018.9 -9.9 -9.999 -99.9 -99.99 -9.99
2020/02/15 22:18 PST  -99.99   6.37 -999 -999 -999 -99.9  43.2 1018.8 -9.9 -9.999 -99.9 -99.99 -9.99
2020/02/15 22:24 PST  -99.99   6.35 -999 -999 -999 -99.9  43.2 1018.8 -9.9 -9.999 -99.9 -99.99 -9.99
2020/02/15 22:30 PST  -99.99   6.32 -999 -999 -999 -99.9  43.2 1018.9 -9.9 -9.999 -99.9 -99.99 -9.99
2020/02/15 22:36 PST  -99.99   6.28 -999 -999 -999 -99.9  43.2 1019.1 -9.9 -9.999 -99.9 -99.99 -9.99
2020/02/15 22:42 PST  -99.99   6.25 -999 -999 -999 -99.9  43.2 1019.1 -9.9 -9.999 -99.9 -99.99 -9.99
2020/02/15 22:48 PST  -99.99   6.21 -999 -999 -999 -99.9  43.2 1019.1 -9.9 -9.999 -99.9 -99.99 -9.99
2020/02/15 22:54 PST  -99.99   6.18 -999 -999 -999 -99.9  43.2 1019.1 -9.9 -9.999 -99.9 -99.99 -9.99
2020/02/15 23:00 PST  -99.99   6.13 -999 -999 -999 -99.9  43.2 1019.3 -9.9 -9.999 -99.9 -99.99 -9.99
2020/02/15 23:06 PST  -99.99   6.10 -999 -999 -999 -99.9  43.2 1019.4 -9.9 -9.999 -99.9 -99.99 -9.99
2020/02/15 23:12 PST  -99.99   6.06 -999 -999 -999 -99.9  43.2 1019.4 -9.9 -9.999 -99.9 -99.99 -9.99
2020/02/15 23:18 PST  -99.99   6.01 -999 -999 -999 -99.9  43.2 1019.5 -9.9 -9.999 -99.9 -99.99 -9.99
2020/02/15 23:24 PST  -99.99   5.97 -999 -999 -999 -99.9  43.2 1019.5 -9.9 -9.999 -99.9 -99.99 -9.99
2020/02/15 23:30 PST  -99.99   5.92 -999 -999 -999 -99.9  43.2 1019.6 -9.9 -9.999 -99.9 -99.99 -9.99
2020/02/15 23:36 PST  -99.99   5.86 -999 -999 -999 -99.9  43.2 1019.8 -9.9 -9.999 -99.9 -99.99 -9.99
2020/02/15 23:42 PST  -99.99   5.81 -999 -999 -999 -99.9  43.2 1019.9 -9.9 -9.999 -99.9 -99.99 -9.99
2020/02/15 23:48 PST  -99.99   5.77 -999 -999 -999 -99.9  43.2 1019.9 -9.9 -9.999 -99.9 -99.99 -9.99
2020/02/15 23:54 PST  -99.99   5.73 -999 -999 -999 -99.9  43.2 1019.9 -9.9 -9.999 -99.9 -99.99 -9.99
2020/02/16 00:00 PST  -99.99   5.68 -999 -999 -999 -99.9  43.2 1020.0 -9.9 -9.999 -99.9 -99.99 -9.99
2020/02/16 00:06 PST  -99.99   5.64 -999 -999 -999 -99.9  43.2 1019.9 -9.9 -9.999 -99.9 -99.99 -9.99
2020/02/16 00:12 PST  -99.99   5.60 -999 -999 -999 -99.9  43.2 1020.0 -9.9 -9.999 -99.9 -99.99 -9.99
2020/02/16 00:18 PST  -99.99   5.56 -999 -999 -999 -99.9  43.2 1020.0 -9.9 -9.999 -99.9 -99.99 -9.99
2020/02/16 00:24 PST  -99.99   5.52 -999 -999 -999 -99.9  43.2 1020.1 -9.9 -9.999 -99.9 -99.99 -9.99
2020/02/16 00:30 PST  -99.99   5.47 -999 -999 -999 -99.9  43.2 1020.1 -9.9 -9.999 -99.9 -99.99 -9.99
2020/02/16 00:36 PST  -99.99   5.44 -999 -999 -999 -99.9  43.2 1020.3 -9.9 -9.999 -99.9 -99.99 -9.99
2020/02/16 00:42 PST  -99.99   5.40 -999 -999 -999 -99.9  43.2 1020.4 -9.9 -9.999 -99.9 -99.99 -9.99
2020/02/16 00:48 PST  -99.99   5.36 -999 -999 -999 -99.9  43.2 1020.3 -9.9 -9.999 -99.9 -99.99 -9.99
2020/02/16 00:54 PST  -99.99   5.33 -999 -999 -999 -99.9  43.2 1020.4 -9.9 -9.999 -99.9 -99.99 -9.99
2020/02/16 01:00 PST  -99.99   5.29 -999 -999 -999 -99.9  43.2 1020.5 -9.9 -9.999 -99.9 -99.99 -9.99
2020/02/16 01:06 PST  -99.99   5.25 -999 -999 -999 -99.9  43.2 1020.6 -9.9 -9.999 -99.9 -99.99 -9.99
2020/02/16 01:12 PST  -99.99   5.22 -999 -999 -999 -99.9  43.2 1020.6 -9.9 -9.999 -99.9 -99.99 -9.99
2020/02/16 01:18 PST  -99.99   5.18 -999 -999 -999 -99.9  43.2 1020.5 -9.9 -9.999 -99.9 -99.99 -9.99
2020/02/16 01:24 PST  -99.99   5.14 -999 -999 -999 -99.9  43.2 1020.6 -9.9 -9.999 -99.9 -99.99 -9.99
2020/02/16 01:30 PST  -99.99   5.11 -999 -999 -999 -99.9  43.2 1020.7 -9.9 -9.999 -99.9 -99.99 -9.99
2020/02/16 01:36 PST  -99.99   5.09 -999 -999 -999 -99.9  43.2 1020.7 -9.9 -9.999 -99.9 -99.99 -9.99
2020/02/16 01:42 PST  -99.99   5.06 -999 -999 -999 -99.9  43.2 1020.9 -9.9 -9.999 -99.9 -99.99 -9.99
2020/02/16 01:48 PST  -99.99   5.02 -999 -999 -999 -99.9  43.2 1020.8 -9.9 -9.999 -99.9 -99.99 -9.99
2020/02/16 01:54 PST  -99.99   4.99 -999 -999 -999 -99.9  43.2 1020.8 -9.9 -9.999 -99.9 -99.99 -9.99
2020/02/16 02:00 PST  -99.99   4.96 -999 -999 -999 -99.9  43.2 1021.0 -9.9 -9.999 -99.9 -99.99 -9.99
2020/02/16 02:06 PST  -99.99   4.93 -999 -999 -999 -99.9  43.2 1021.1 -9.9 -9.999 -99.9 -99.99 -9.99
2020/02/16 02:12 PST  -99.99   4.91 -999 -999 -999 -99.9  43.2 1021.2 -9.9 -9.999 -99.9 -99.99 -9.99
2020/02/16 02:18 PST  -99.99   4.88 -999 -999 -999 -99.9  43.2 1021.3 -9.9 -9.999 -99.9 -99.99 -9.99
2020/02/16 02:24 PST  -99.99   4.85 -999 -999 -999 -99.9  43.2 1021.3 -9.9 -9.999 -99.9 -99.99 -9.99
2020/02/16 02:30 PST  -99.99   4.83 -999 -999 -999 -99.9  43.2 1021.3 -9.9 -9.999 -99.9 -99.99 -9.99
2020/02/16 02:36 PST  -99.99   4.81 -999 -999 -999 -99.9  43.2 1021.3 -9.9 -9.999 -99.9 -99.99 -9.99
2020/02/16 02:42 PST  -99.99   4.78 -999 -999 -999 -99.9  43.0 1021.4 -9.9 -9.999 -99.9 -99.99 -9.99
2020/02/16 02:48 PST  -99.99   4.76 -999 -999 -999 -99.9  43.0 1021.6 -9.9 -9.999 -99.9 -99.99 -9.99
2020/02/16 02:54 PST  -99.99   4.75 -999 -999 -999 -99.9  43.0 1021.7 -9.9 -9.999 -99.9 -99.99 -9.99
2020/02/16 03:00 PST  -99.99   4.73 -999 -999 -999 -99.9  43.0 1021.8 -9.9 -9.999 -99.9 -99.99 -9.99
2020/02/16 03:06 PST  -99.99   4.71 -999 -999 -999 -99.9  43.0 1021.8 -9.9 -9.999 -99.9 -99.99 -9.99
2020/02/16 03:12 PST  -99.99   4.70 -999 -999 -999 -99.9  43.0 1021.9 -9.9 -9.999 -99.9 -99.99 -9.99
2020/02/16 03:18 PST  -99.99   4.68 -999 -999 -999 -99.9  43.0 1021.9 -9.9 -9.999 -99.9 -99.99 -9.99
2020/02/16 03:24 PST  -99.99   4.67 -999 -999 -999 -99.9  43.0 1021.9 -9.9 -9.999 -99.9 -99.99 -9.99
2020/02/16 03:30 PST  -99.99   4.67 -999 -999 -999 -99.9  43.0 1021.8 -9.9 -9.999 -99.9 -99.99 -9.99
2020/02/16 03:36 PST  -99.99   4.66 -999 -999 -999 -99.9  43.0 1021.7 -9.9 -9.999 -99.9 -99.99 -9.99
2020/02/16 03:42 PST  -99.99   4.65 -999 -999 -999 -99.9  43.0 1021.8 -9.9 -9.999 -99.9 -99.99 -9.99
2020/02/16 03:48 PST  -99.99   4.66 -999 -999 -999 -99.9  43.0 1021.8 -9.9 -9.999 -99.9 -99.99 -9.99
2020/02/16 03:54 PST  -99.99   4.67 -999 -999 -999 -99.9  43.0 1021.9 -9.9 -9.999 -99.9 -99.99 -9.99
2020/02/16 04:00 PST  -99.99   4.68 -999 -999 -999 -99.9  43.0 1021.8 -9.9 -9.999 -99.9 -99.99 -9.99
2020/02/16 04:06 PST  -99.99   4.69 -999 -999 -999 -99.9  43.0 1021.8 -9.9 -9.999 -99.9 -99.99 -9.99
2020/02/16 04:12 PST  -99.99   4.71 -999 -999 -999 -99.9  43.0 1021.8 -9.9 -9.999 -99.9 -99.99 -9.99
2020/02/16 04:18 PST  -99.99   4.72 -999 -999 -999 -99.9  43.0 1021.8 -9.9 -9.999 -99.9 -99.99 -9.99
2020/02/16 04:24 PST  -99.99   4.75 -999 -999 -999 -99.9  43.0 1021.7 -9.9 -9.999 -99.9 -99.99 -9.99
2020/02/16 04:30 PST  -99.99   4.77 -999 -999 -999 -99.9  43.0 1021.8 -9.9 -9.999 -99.9 -99.99 -9.99
2020/02/16 04:36 PST  -99.99   4.81 -999 -999 -999 -99.9  43.0 1021.9 -9.9 -9.999 -99.9 -99.99 -9.99
2020/02/16 04:42 PST  -99.99   4.86 -999 -999 -999 -99.9  43.0 1021.9 -9.9 -9.999 -99.9 -99.99 -9.99
2020/02/16 04:48 PST  -99.99   4.93 -999 -999 -999 -99.9  43.0 1022.0 -9.9 -9.999 -99.9 -99.99 -9.99
2020/02/16 04:54 PST  -99.99   4.98 -999 -999 -999 -99.9  43.0 1022.0 -9.9 -9.999 -99.9 -99.99 -9.99
2020/02/16 05:00 PST  -99.99   5.05 -999 -999 -999 -99.9  43.0 1022.1 -9.9 -9.999 -99.9 -99.99 -9.99
2020/02/16 05:06 PST  -99.99   5.12 -999 -999 -999 -99.9  43.0 1022.1 -9.9 -9.999 -99.9 -99.99 -9.99
2020/02/16 05:12 PST  -99.99   5.20 -999 -999 -999 -99.9  43.0 1022.2 -9.9 -9.999 -99.9 -99.99 -9.99
2020/02/16 05:18 PST  -99.99   5.27 -999 -999 -999 -99.9  43.0 1022.2 -9.9 -9.999 -99.9 -99.99 -9.99
2020/02/16 05:24 PST  -99.99   5.33 -999 -999 -999 -99.9  43.0 1022.3 -9.9 -9.999 -99.9 -99.99 -9.99
2020/02/16 05:30 PST  -99.99   5.46 -999 -999 -999 -99.9  43.0 1022.4 -9.9 -9.999 -99.9 -99.99 -9.99
2020/02/16 05:36 PST  -99.99   5.57 -999 -999 -999 -99.9  43.0 1022.6 -9.9 -9.999 -99.9 -99.99 -9.99
2020/02/16 05:42 PST  -99.99   5.69 -999 -999 -999 -99.9  43.0 1022.7 -9.9 -9.999 -99.9 -99.99 -9.99
2020/02/16 05:48 PST  -99.99   5.80 -999 -999 -999 -99.9  43.0 1022.7 -9.9 -9.999 -99.9 -99.99 -9.99
2020/02/16 05:54 PST  -99.99   5.92 -999 -999 -999 -99.9  43.0 1022.8 -9.9 -9.999 -99.9 -99.99 -9.99
2020/02/16 06:00 PST  -99.99   6.05 -999 -999 -999 -99.9  43.0 1022.8 -9.9 -9.999 -99.9 -99.99 -9.99
2020/02/16 06:06 PST  -99.99   6.19 -999 -999 -999 -99.9  43.0 1022.8 -9.9 -9.999 -99.9 -99.99 -9.99
2020/02/16 06:12 PST  -99.99   6.30 -999 -999 -999 -99.9  43.0 1022.8 -9.9 -9.999 -99.9 -99.99 -9.99
2020/02/16 06:18 PST  -99.99   6.42 -999 -999 -999 -99.9  42.8 1022.9 -9.9 -9.999 -99.9 -99.99 -9.99
2020/02/16 06:24 PST  -99.99   6.54 -999 -999 -999 -99.9  42.8 1023.0 -9.9 -9.999 -99.9 -99.99 -9.99
2020/02/16 06:30 PST  -99.99   6.65 -999 -999 -999 -99.9  42.8 1023.2 -9.9 -9.999 -99.9 -99.99 -9.99
2020/02/16 06:36 PST  -99.99   6.76 -999 -999 -999 -99.9  42.8 1023.2 -9.9 -9.999 -99.9 -99.99 -9.99
2020/02/16 06:42 PST  -99.99   6.87 -999 -999 -999 -99.9  42.8 1023.2 -9.9 -9.999 -99.9 -99.99 -9.99
2020/02/16 06:48 PST  -99.99   6.98 -999 -999 -999 -99.9  42.8 1023.3 -9.9 -9.999 -99.9 -99.99 -9.99
2020/02/16 06:54 PST  -99.99   7.08 -999 -999 -999 -99.9  42.8 1023.4 -9.9 -9.999 -99.9 -99.99 -9.99
2020/02/16 07:00 PST  -99.99   7.18 -999 -999 -999 -99.9  42.8 1023.5 -9.9 -9.999 -99.9 -99.99 -9.99
2020/02/16 07:06 PST  -99.99   7.27 -999 -999 -999 -99.9  42.8 1023.5 -9.9 -9.999 -99.9 -99.99 -9.99
2020/02/16 07:12 PST  -99.99   7.37 -999 -999 -999 -99.9  42.8 1023.7 -9.9 -9.999 -99.9 -99.99 -9.99
2020/02/16 07:18 PST  -99.99   7.45 -999 -999 -999 -99.9  42.8 1023.9 -9.9 -9.999 -99.9 -99.99 -9.99
2020/02/16 07:24 PST  -99.99   7.53 -999 -999 -999 -99.9  42.8 1024.0 -9.9 -9.999 -99.9 -99.99 -9.99
2020/02/16 07:30 PST  -99.99   7.60 -999 -999 -999 -99.9  42.8 1024.0 -9.9 -9.999 -99.9 -99.99 -9.99
2020/02/16 07:36 PST  -99.99   7.68 -999 -999 -999 -99.9  42.8 1024.1 -9.9 -9.999 -99.9 -99.99 -9.99
2020/02/16 07:42 PST  -99.99   7.74 -999 -999 -999 -99.9  42.8 1024.2 -9.9 -9.999 -99.9 -99.99 -9.99
2020/02/16 07:48 PST  -99.99   7.81 -999 -999 -999 -99.9  42.8 1024.4 -9.9 -9.999 -99.9 -99.99 -9.99
2020/02/16 07:54 PST  -99.99   7.85 -999 -999 -999 -99.9  42.8 1024.5 -9.9 -9.999 -99.9 -99.99 -9.99
2020/02/16 08:00 PST  -99.99   7.90 -999 -999 -999 -99.9  42.8 1024.6 -9.9 -9.999 -99.9 -99.99 -9.99
2020/02/16 08:06 PST  -99.99   7.95 -999 -999 -999 -99.9  42.8 1024.7 -9.9 -9.999 -99.9 -99.99 -9.99
2020/02/16 08:12 PST  -99.99   7.98 -999 -999 -999 -99.9  42.8 1024.7 -9.9 -9.999 -99.9 -99.99 -9.99
2020/02/16 08:18 PST  -99.99   8.00 -999 -999 -999 -99.9  42.8 1024.8 -9.9 -9.999 -99.9 -99.99 -9.99
2020/02/16 08:24 PST  -99.99   8.02 -999 -999 -999 -99.9  42.8 1024.8 -9.9 -9.999 -99.9 -99.99 -9.99
2020/02/16 08:30 PST  -99.99   8.04 -999 -999 -999 -99.9  42.8 1024.8 -9.9 -9.999 -99.9 -99.99 -9.99
2020/02/16 08:36 PST  -99.99   8.03 -999 -999 -999 -99.9  42.8 1024.9 -9.9 -9.999 -99.9 -99.99 -9.99
2020/02/16 08:42 PST  -99.99   8.03 -999 -999 -999 -99.9  42.8 1024.9 -9.9 -9.999 -99.9 -99.99 -9.99
2020/02/16 08:48 PST  -99.99   8.02 -999 -999 -999 -99.9  42.8 1024.9 -9.9 -9.999 -99.9 -99.99 -9.99
2020/02/16 08:54 PST  -99.99   8.00 -999 -999 -999 -99.9  42.8 1025.0 -9.9 -9.999 -99.9 -99.99 -9.99
2020/02/16 09:00 PST  -99.99   7.98 -999 -999 -999 -99.9  42.8 1025.1 -9.9 -9.999 -99.9 -99.99 -9.99
2020/02/16 09:06 PST  -99.99   7.96 -999 -999 -999 -99.9  42.8 1025.2 -9.9 -9.999 -99.9 -99.99 -9.99
2020/02/16 09:12 PST  -99.99   7.93 -999 -999 -999 -99.9  42.8 1025.2 -9.9 -9.999 -99.9 -99.99 -9.99
2020/02/16 09:18 PST  -99.99   7.90 -999 -999 -999 -99.9  42.8 1025.3 -9.9 -9.999 -99.9 -99.99 -9.99
2020/02/16 09:24 PST  -99.99   7.87 -999 -999 -999 -99.9  42.8 1025.4 -9.9 -9.999 -99.9 -99.99 -9.99
2020/02/16 09:30 PST  -99.99   7.84 -999 -999 -999 -99.9  42.8 1025.5 -9.9 -9.999 -99.9 -99.99 -9.99
2020/02/16 09:36 PST  -99.99   7.81 -999 -999 -999 -99.9  42.8 1025.6 -9.9 -9.999 -99.9 -99.99 -9.99
2020/02/16 09:42 PST  -99.99   7.76 -999 -999 -999 -99.9  42.8 1025.8 -9.9 -9.999 -99.9 -99.99 -9.99
2020/02/16 09:48 PST  -99.99   7.70 -999 -999 -999 -99.9  42.8 1025.9 -9.9 -9.999 -99.9 -99.99 -9.99
2020/02/16 09:54 PST  -99.99   7.66 -999 -999 -999 -99.9  42.8 1025.8 -9.9 -9.999 -99.9 -99.99 -9.99
2020/02/16 10:00 PST  -99.99   7.61 -999 -999 -999 -99.9  42.8 1025.8 -9.9 -9.999 -99.9 -99.99 -9.99
2020/02/16 10:06 PST  -99.99   7.56 -999 -999 -999 -99.9  42.8 1025.8 -9.9 -9.999 -99.9 -99.99 -9.99
2020/02/16 10:12 PST  -99.99   7.51 -999 -999 -999 -99.9  42.8 1025.8 -9.9 -9.999 -99.9 -99.99 -9.99
2020/02/16 10:18 PST  -99.99   7.46 -999 -999 -999 -99.9  42.8 1025.8 -9.9 -9.999 -99.9 -99.99 -9.99
2020/02/16 10:24 PST  -99.99   7.41 -999 -999 -999 -99.9  43.0 1025.8 -9.9 -9.999 -99.9 -99.99 -9.99
2020/02/16 10:30 PST  -99.99   7.36 -999 -999 -999 -99.9  43.0 1025.9 -9.9 -9.999 -99.9 -99.99 -9.99
2020/02/16 10:36 PST  -99.99   7.31 -999 -999 -999 -99.9  43.0 1025.9 -9.9 -9.999 -99.9 -99.99 -9.99
2020/02/16 10:42 PST  -99.99   7.25 -999 -999 -999 -99.9  43.0 1025.9 -9.9 -9.999 -99.9 -99.99 -9.99
2020/02/16 10:48 PST  -99.99   7.20 -999 -999 -999 -99.9  43.0 1025.9 -9.9 -9.999 -99.9 -99.99 -9.99
2020/02/16 10:54 PST  -99.99   7.14 -999 -999 -999 -99.9  43.0 1025.9 -9.9 -9.999 -99.9 -99.99 -9.99
2020/02/16 11:00 PST  -99.99 -99.99 -999 -999 -999 -99.9 -99.9 -999.9 -9.9 -9.999 -99.9 -99.99 -9.99
2020/02/16 11:06 PST  -99.99 -99.99 -999 -999 -999 -99.9 -99.9 -999.9 -9.9 -9.999 -99.9 -99.99 -9.99
2020/02/16 11:12 PST  -99.99 -99.99 -999 -999 -999 -99.9 -99.9 -999.9 -9.9 -9.999 -99.9 -99.99 -9.99
2020/02/16 11:18 PST  -99.99 -99.99 -999 -999 -999 -99.9 -99.9 -999.9 -9.9 -9.999 -99.9 -99.99 -9.99
2020/02/16 11:24 PST  -99.99 -99.99 -999 -999 -999 -99.9 -99.9 -999.9 -9.9 -9.999 -99.9 -99.99 -9.99
2020/02/16 11:30 PST  -99.99 -99.99 -999 -999 -999 -99.9 -99.9 -999.9 -9.9 -9.999 -99.9 -99.99 -9.99
2020/02/16 11:36 PST  -99.99 -99.99 -999 -999 -999 -99.9 -99.9 -999.9 -9.9 -9.999 -99.9 -99.99 -9.99
2020/02/16 11:42 PST  -99.99 -99.99 -999 -999 -999 -99.9 -99.9 -999.9 -9.9 -9.999 -99.9 -99.99 -9.99
2020/02/16 11:48 PST  -99.99 -99.99 -999 -999 -999 -99.9 -99.9 -999.9 -9.9 -9.999 -99.9 -99.99 -9.99
2020/02/16 11:54 PST  -99.99 -99.99 -999 -999 -999 -99.9 -99.9 -999.9 -9.9 -9.999 -99.9 -99.99 -9.99
2020/02/16 12:00 PST    6.95 -99.99 -999 -999 -999 -99.9 -99.9 -999.9 -9.9 -9.999 -99.9 -99.99 -9.99
2020/02/16 12:06 PST  -99.99 -99.99 -999 -999 -999 -99.9 -99.9 -999.9 -9.9 -9.999 -99.9 -99.99 -9.99
2020/02/16 12:12 PST  -99.99 -99.99 -999 -999 -999 -99.9 -99.9 -999.9 -9.9 -9.999 -99.9 -99.99 -9.99
2020/02/16 12:18 PST  -99.99 -99.99 -999 -999 -999 -99.9 -99.9 -999.9 -9.9 -9.999 -99.9 -99.99 -9.99
2020/02/16 12:24 PST  -99.99 -99.99 -999 -999 -999 -99.9 -99.9 -999.9 -9.9 -9.999 -99.9 -99.99 -9.99
2020/02/16 12:30 PST  -99.99 -99.99 -999 -999 -999 -99.9 -99.9 -999.9 -9.9 -9.999 -99.9 -99.99 -9.99
2020/02/16 12:36 PST  -99.99 -99.99 -999 -999 -999 -99.9 -99.9 -999.9 -9.9 -9.999 -99.9 -99.99 -9.99
2020/02/16 12:42 PST  -99.99 -99.99 -999 -999 -999 -99.9 -99.9 -999.9 -9.9 -9.999 -99.9 -99.99 -9.99
2020/02/16 12:48 PST  -99.99 -99.99 -999 -999 -999 -99.9 -99.9 -999.9 -9.9 -9.999 -99.9 -99.99 -9.99
2020/02/16 12:54 PST  -99.99 -99.99 -999 -999 -999 -99.9 -99.9 -999.9 -9.9 -9.999 -99.9 -99.99 -9.99
2020/02/16 13:00 PST    6.48 -99.99 -999 -999 -999 -99.9 -99.9 -999.9 -9.9 -9.999 -99.9 -99.99 -9.99
2020/02/16 13:06 PST  -99.99 -99.99 -999 -999 -999 -99.9 -99.9 -999.9 -9.9 -9.999 -99.9 -99.99 -9.99
2020/02/16 13:12 PST  -99.99 -99.99 -999 -999 -999 -99.9 -99.9 -999.9 -9.9 -9.999 -99.9 -99.99 -9.99
2020/02/16 13:18 PST  -99.99 -99.99 -999 -999 -999 -99.9 -99.9 -999.9 -9.9 -9.999 -99.9 -99.99 -9.99
2020/02/16 13:24 PST  -99.99 -99.99 -999 -999 -999 -99.9 -99.9 -999.9 -9.9 -9.999 -99.9 -99.99 -9.99
2020/02/16 13:30 PST  -99.99 -99.99 -999 -999 -999 -99.9 -99.9 -999.9 -9.9 -9.999 -99.9 -99.99 -9.99
2020/02/16 13:36 PST  -99.99 -99.99 -999 -999 -999 -99.9 -99.9 -999.9 -9.9 -9.999 -99.9 -99.99 -9.99
2020/02/16 13:42 PST  -99.99 -99.99 -999 -999 -999 -99.9 -99.9 -999.9 -9.9 -9.999 -99.9 -99.99 -9.99
2020/02/16 13:48 PST  -99.99 -99.99 -999 -999 -999 -99.9 -99.9 -999.9 -9.9 -9.999 -99.9 -99.99 -9.99
2020/02/16 13:54 PST  -99.99 -99.99 -999 -999 -999 -99.9 -99.9 -999.9 -9.9 -9.999 -99.9 -99.99 -9.99
2020/02/16 14:00 PST    5.98 -99.99 -999 -999 -999 -99.9 -99.9 -999.9 -9.9 -9.999 -99.9 -99.99 -9.99
2020/02/16 14:06 PST  -99.99 -99.99 -999 -999 -999 -99.9 -99.9 -999.9 -9.9 -9.999 -99.9 -99.99 -9.99
2020/02/16 14:12 PST  -99.99 -99.99 -999 -999 -999 -99.9 -99.9 -999.9 -9.9 -9.999 -99.9 -99.99 -9.99
2020/02/16 14:18 PST  -99.99 -99.99 -999 -999 -999 -99.9 -99.9 -999.9 -9.9 -9.999 -99.9 -99.99 -9.99
2020/02/16 14:24 PST  -99.99 -99.99 -999 -999 -999 -99.9 -99.9 -999.9 -9.9 -9.999 -99.9 -99.99 -9.99
2020/02/16 14:30 PST  -99.99 -99.99 -999 -999 -999 -99.9 -99.9 -999.9 -9.9 -9.999 -99.9 -99.99 -9.99
2020/02/16 14:36 PST  -99.99 -99.99 -999 -999 -999 -99.9 -99.9 -999.9 -9.9 -9.999 -99.9 -99.99 -9.99
2020/02/16 14:42 PST  -99.99 -99.99 -999 -999 -999 -99.9 -99.9 -999.9 -9.9 -9.999 -99.9 -99.99 -9.99
2020/02/16 14:48 PST  -99.99 -99.99 -999 -999 -999 -99.9 -99.9 -999.9 -9.9 -9.999 -99.9 -99.99 -9.99
2020/02/16 14:54 PST  -99.99 -99.99 -999 -999 -999 -99.9 -99.9 -999.9 -9.9 -9.999 -99.9 -99.99 -9.99
2020/02/16 15:00 PST    5.48 -99.99 -999 -999 -999 -99.9 -99.9 -999.9 -9.9 -9.999 -99.9 -99.99 -9.99
2020/02/16 15:06 PST  -99.99 -99.99 -999 -999 -999 -99.9 -99.9 -999.9 -9.9 -9.999 -99.9 -99.99 -9.99
2020/02/16 15:12 PST  -99.99 -99.99 -999 -999 -999 -99.9 -99.9 -999.9 -9.9 -9.999 -99.9 -99.99 -9.99
2020/02/16 15:18 PST  -99.99 -99.99 -999 -999 -999 -99.9 -99.9 -999.9 -9.9 -9.999 -99.9 -99.99 -9.99
2020/02/16 15:24 PST  -99.99 -99.99 -999 -999 -999 -99.9 -99.9 -999.9 -9.9 -9.999 -99.9 -99.99 -9.99
2020/02/16 15:30 PST  -99.99 -99.99 -999 -999 -999 -99.9 -99.9 -999.9 -9.9 -9.999 -99.9 -99.99 -9.99
2020/02/16 15:36 PST  -99.99 -99.99 -999 -999 -999 -99.9 -99.9 -999.9 -9.9 -9.999 -99.9 -99.99 -9.99
2020/02/16 15:42 PST  -99.99 -99.99 -999 -999 -999 -99.9 -99.9 -999.9 -9.9 -9.999 -99.9 -99.99 -9.99
2020/02/16 15:48 PST  -99.99 -99.99 -999 -999 -999 -99.9 -99.9 -999.9 -9.9 -9.999 -99.9 -99.99 -9.99
2020/02/16 15:54 PST  -99.99 -99.99 -999 -999 -999 -99.9 -99.9 -999.9 -9.9 -9.999 -99.9 -99.99 -9.99
2020/02/16 16:00 PST    5.03 -99.99 -999 -999 -999 -99.9 -99.9 -999.9 -9.9 -9.999 -99.9 -99.99 -9.99
2020/02/16 16:06 PST  -99.99 -99.99 -999 -999 -999 -99.9 -99.9 -999.9 -9.9 -9.999 -99.9 -99.99 -9.99
2020/02/16 16:12 PST  -99.99 -99.99 -999 -999 -999 -99.9 -99.9 -999.9 -9.9 -9.999 -99.9 -99.99 -9.99
2020/02/16 16:18 PST  -99.99 -99.99 -999 -999 -999 -99.9 -99.9 -999.9 -9.9 -9.999 -99.9 -99.99 -9.99
2020/02/16 16:24 PST  -99.99 -99.99 -999 -999 -999 -99.9 -99.9 -999.9 -9.9 -9.999 -99.9 -99.99 -9.99
2020/02/16 16:30 PST  -99.99 -99.99 -999 -999 -999 -99.9 -99.9 -999.9 -9.9 -9.999 -99.9 -99.99 -9.99
2020/02/16 16:36 PST  -99.99 -99.99 -999 -999 -999 -99.9 -99.9 -999.9 -9.9 -9.999 -99.9 -99.99 -9.99
2020/02/16 16:42 PST  -99.99 -99.99 -999 -999 -999 -99.9 -99.9 -999.9 -9.9 -9.999 -99.9 -99.99 -9.99
2020/02/16 16:48 PST  -99.99 -99.99 -999 -999 -999 -99.9 -99.9 -999.9 -9.9 -9.999 -99.9 -99.99 -9.99
2020/02/16 16:54 PST  -99.99 -99.99 -999 -999 -999 -99.9 -99.9 -999.9 -9.9 -9.999 -99.9 -99.99 -9.99
2020/02/16 17:00 PST    4.68 -99.99 -999 -999 -999 -99.9 -99.9 -999.9 -9.9 -9.999 -99.9 -99.99 -9.99
2020/02/16 17:06 PST  -99.99 -99.99 -999 -999 -999 -99.9 -99.9 -999.9 -9.9 -9.999 -99.9 -99.99 -9.99
Notice: We now provide an option to view water levels for this station on the updated Columbia River Datum. Select "CRD" from the drop-down datum menu where applicable.